Home   Weather   Milwaukee   Past weeks
Flag for USA

Past Weather in Milwaukee, Wisconsin, USA — Yesterday and Last 2 Weeks

Now
45 °F

Sunny.


Feels Like: 38 °F
Forecast: 54 / 40 °F
Wind: 13 mph from West

Location: Milwaukee / Timmerman

Current Time: Oct 23, 2019 at 11:01:58 am

Latest Report: Oct 23, 2019 at 9:45 am


Visibility: 10 mi

Pressure: 29.89 "Hg

Humidity: 53%

Dew Point: 28 °F

Location of MilwaukeeLocation

Past Weather in Milwaukee — Graph

°F

Milwaukee Temperature Yesterday

Maximum temperature yesterday: 50 °F (at 12:15 am)
Minimum temperature yesterday: 43 °F (at 5:45 pm)
Average temperature yesterday: 47 °F

High & Low Weather Summary for the Past Weeks

 TemperatureHumidityPressure
High70 °F (Oct 9, 12:45 pm)100% (Oct 18, 2:55 am)30.25 "Hg (Oct 18, 2:55 am)
Low32 °F (Oct 14, 4:55 am)29% (Oct 9, 1:45 pm)29.35 "Hg (Oct 22, 5:35 am)
Average46 °F73%29.89 "Hg
* Reported Oct 8 8:45 am — Oct 23 8:45 am, Milwaukee. Weather by CustomWeather, © 2019

Note: Actual official high and low records may vary slightly from our data, if they occured in-between our weather recording intervals... More about our weather records

Advertising

Milwaukee Weather History for the Previous 24 Hours

Scroll right to see more
 ConditionsComfort  
Time TempWeatherWind HumidityBarometerVisibility
8:45 am
Wed, Oct 23
41 °FSunny.13 mph66%29.86 "Hg10 mi
7:45 am37 °FSunny.12 mph70%29.84 "Hg10 mi
7:15 am37 °FSunny.9 mph75%29.83 "Hg10 mi
7:00 am37 °FClear.13 mph70%29.83 "Hg10 mi
6:35 am37 °FClear.9 mph75%29.82 "Hg10 mi
6:15 am37 °FClear.10 mph75%29.81 "Hg10 mi
5:55 am37 °FClear.10 mph75%29.80 "Hg10 mi
5:35 am37 °FClear.12 mph75%29.79 "Hg10 mi
4:55 am37 °FClear.12 mph75%29.77 "Hg10 mi
4:35 am37 °FClear.14 mph75%29.76 "Hg10 mi
4:15 am39 °FClear.8 mph70%29.75 "Hg10 mi
3:55 am39 °FClear.8 mph70%29.74 "Hg10 mi
3:35 am41 °FClear.8 mph66%29.74 "Hg10 mi
3:15 am41 °FPassing clouds.12 mph66%29.73 "Hg10 mi
2:55 am41 °FPassing clouds.10 mph66%29.73 "Hg10 mi
2:35 am41 °FOvercast.13 mph66%29.73 "Hg10 mi
1:55 am43 °FPassing clouds.13 mph61%29.72 "Hg10 mi
1:35 am43 °FClear.13 mph61%29.72 "Hg10 mi
1:15 am43 °FPassing clouds.16 mph57%29.71 "Hg10 mi
12:55 am43 °FPassing clouds.16 mph61%29.70 "Hg10 mi
12:35 am45 °FPassing clouds.15 mph53%29.70 "Hg10 mi
12:15 am45 °FPassing clouds.15 mph57%29.70 "Hg10 mi
11:35 pm
Tue, Oct 22
45 °FPassing clouds.15 mph57%29.69 "Hg10 mi
11:15 pm45 °FPassing clouds.14 mph57%29.69 "Hg10 mi
10:35 pm46 °FOvercast.17 mph57%29.68 "Hg10 mi
10:15 pm46 °FOvercast.17 mph57%29.68 "Hg10 mi
9:55 pm46 °FOvercast.14 mph57%29.68 "Hg10 mi
9:35 pm46 °FOvercast.18 mph57%29.67 "Hg10 mi
9:15 pm46 °FOvercast.15 mph62%29.67 "Hg10 mi
8:55 pm45 °FLight rain. Mostly cloudy.15 mph71%29.66 "Hg10 mi
7:45 pm45 °FMostly cloudy.8 mph76%29.66 "Hg10 mi
6:45 pm45 °FOvercast.13 mph76%29.65 "Hg10 mi
5:45 pm43 °FMostly cloudy.14 mph81%29.63 "Hg10 mi
4:45 pm46 °FMostly cloudy.16 mph62%29.60 "Hg10 mi
3:45 pm46 °FMostly cloudy.16 mph66%29.57 "Hg10 mi
2:45 pm45 °FOvercast.28 mph71%29.54 "Hg10 mi
1:45 pm46 °FOvercast.18 mph66%29.51 "Hg10 mi
12:45 pm46 °FOvercast.23 mph66%29.49 "Hg10 mi
11:45 am46 °FOvercast.16 mph66%29.48 "Hg10 mi
Weather by CustomWeather, © 2019

See weather overview